Location: Aufkirchen
(47.9603°N, 11.3653°E)
Time: 07:26:42
(UTC+01:00)

Transit 2A - Pass Details

Date: 04 December 2020
Orbit: 599 x 960 km, 66.7° (Epoch: 25 January)

Event Time Altitude Azimuth Distance (km) Brightness Sun altitude
Rises 18:44:07 0° 267° (W) 3,588 10.9 -22.8°
Reaches altitude 10° 18:47:27 10° 283° (WNW) 2,604 9.7 -23.4°
Maximum altitude 18:51:48 20° 330° (NNW) 1,916 8.3 -24.1°
Enters shadow 18:54:59 13° 8° (N) 2,236 8.2 -24.6°
Drops below altitude 10° 18:55:57 10° 16° (NNE) 2,453 - -24.8°
Sets 18:59:00 0° 34° (NE) 3,318 - -25.3°
